Find Morelos 3

NORAD ID: 40946 Int'l Des: 2015-056 Owner: AEMX Country: MX operational
HEOCIRCULARGSO

Live-Position

3D-Globus wird geladen...

Über Morelos 3

Beschreibung wird geladen...

Nächste Überflüge

Passes for default location (London). Set your location on the main map for personalized predictions.

Höhenverlauf

Loading altitude history...

Zweizeiliger Elementsatz

1 40946U 15056A 26106.22197550 -.00000036 00000-0 00000-0 0 9996
2 40946 3.1403 13.3581 0003397 355.7727 162.0432 1.00271730 38667
Epoch: 16. Apr. 2026 • Age: 11 hours

Aktueller Status

Höhe 35773.9 km
Geschwindigkeit 3.08 km/s
Subsatellitenpunkt -1.74°S, 113.1°W
Startdatum 2. Okt. 2015
Alter 10.5 years
Typ other

Technische Details

Klassifizierung Payload
Masse 5400.00 kg
Trockenmasse 2800.00 kg
Gesamtmasse 5400.00 kg
Länge 9.00 m
Durchmesser 3.00 m
Spannweite 41.00 m
Form Box + 2pan+dish
Hersteller BOES
Bus-Typ BSS-702HP
Phasenstatus In Orbit
Besitzer/Staat AEMX/MX

Most Searched